• In Lithuania
  • List of Countries
  • For 7 days
  • Water Temperature
  • Satellite Maps
  • Weather Map
  • Weather Widgets
  • user-avatar
    Login

    Hourly Weather Bijsk

    Today, 24 June, Sunday

    Time Temperature Precipitation Wind Pressure Humidity
    00:00 +19°C° 0 mm 2 mps 737 mmHg 72%
    01:00 +19°C° 0.2 mm 2 mps 738 mmHg 76%
    02:00 +19°C° 0.2 mm 2 mps 738 mmHg 79%
    03:00 +19°C° 0.2 mm 2 mps 738 mmHg 82%
    04:00 +19°C° 0 mm 2 mps 738 mmHg 84%
    05:00 +19°C° 0 mm 2 mps 738 mmHg 86%
    06:00 +20°C° 0 mm 1 mps 738 mmHg 88%
    07:00 +22°C° 0 mm 1 mps 739 mmHg 83%
    08:00 +23°C° 0 mm 1 mps 739 mmHg 79%
    09:00 +25°C° 0 mm 1 mps 739 mmHg 75%
    10:00 +26°C° 0.1 mm 1 mps 739 mmHg 72%
    11:00 +27°C° 0.1 mm 1 mps 739 mmHg 68%
    12:00 +28°C° 0.1 mm 1 mps 739 mmHg 65%
    13:00 +29°C° 0.6 mm 1 mps 739 mmHg 65%
    14:00 +29°C° 0.6 mm 1 mps 738 mmHg 64%
    15:00 +30°C° 0.6 mm 1 mps 738 mmHg 64%
    16:00 +28°C° 1.4 mm 1 mps 738 mmHg 70%
    17:00 +27°C° 1.4 mm 1 mps 738 mmHg 76%
    18:00 +26°C° 1.4 mm 2 mps 738 mmHg 82%
    19:00 +25°C° 0 mm 2 mps 738 mmHg 83%
    20:00 +24°C° 0 mm 2 mps 738 mmHg 84%
    21:00 +23°C° 0 mm 2 mps 739 mmHg 85%
    22:00 +21°C° 0.3 mm 2 mps 739 mmHg 87%
    23:00 +20°C° 0.3 mm 2 mps 739 mmHg 88%

    Tomorrow, 25 June, Monday

    Time Temperature Precipitation Wind Pressure Humidity
    00:00 +19°C° 0.3 mm 2 mps 739 mmHg 89%
    01:00 +19°C° 0.1 mm 2 mps 739 mmHg 90%
    02:00 +19°C° 0.1 mm 2 mps 739 mmHg 90%
    03:00 +18°C° 0.1 mm 2 mps 738 mmHg 90%
    04:00 +19°C° 0 mm 2 mps 738 mmHg 89%
    05:00 +19°C° 0 mm 2 mps 739 mmHg 88%
    06:00 +21°C° 0 mm 1 mps 739 mmHg 88%
    07:00 +23°C° 0 mm 1 mps 738 mmHg 82%
    08:00 +25°C° 0 mm 1 mps 738 mmHg 76%
    09:00 +26°C° 0 mm 2 mps 738 mmHg 71%
    10:00 +28°C° 0 mm 1 mps 738 mmHg 68%
    11:00 +29°C° 0 mm 1 mps 738 mmHg 65%
    12:00 +30°C° 0 mm 1 mps 738 mmHg 63%
    13:00 +30°C° 0 mm 2 mps 737 mmHg 62%
    14:00 +31°C° 0 mm 2 mps 737 mmHg 61%
    15:00 +32°C° 0 mm 2 mps 737 mmHg 60%
    16:00 +30°C° 0.7 mm 2 mps 737 mmHg 66%
    17:00 +29°C° 0.7 mm 3 mps 737 mmHg 73%
    18:00 +27°C° 0.7 mm 3 mps 738 mmHg 79%
    19:00 +26°C° 0.9 mm 3 mps 738 mmHg 84%
    20:00 +24°C° 0.9 mm 3 mps 739 mmHg 89%
    21:00 +21°C° 0.9 mm 3 mps 739 mmHg 94%
    22:00 +20°C° 1 mm 2 mps 739 mmHg 95%
    23:00 +20°C° 1 mm 2 mps 740 mmHg 96%

    Day after tomorrow, 26 June, Tuesday

    Time Temperature Precipitation Wind Pressure Humidity
    00:00 +19°C° 1 mm 2 mps 740 mmHg 97%
    01:00 +19°C° 0.3 mm 2 mps 740 mmHg 96%
    02:00 +19°C° 0.3 mm 2 mps 740 mmHg 96%
    03:00 +19°C° 0.3 mm 1 mps 740 mmHg 96%
    04:00 +19°C° 0 mm 2 mps 740 mmHg 95%
    05:00 +19°C° 0 mm 2 mps 740 mmHg 95%
    06:00 +20°C° 0 mm 2 mps 740 mmHg 94%
    07:00 +23°C° 0 mm 2 mps 740 mmHg 86%
    08:00 +25°C° 0 mm 2 mps 741 mmHg 79%
    09:00 +27°C° 0 mm 2 mps 741 mmHg 71%
    10:00 +28°C° 0 mm 2 mps 741 mmHg 66%
    11:00 +29°C° 0 mm 1 mps 741 mmHg 61%
    12:00 +31°C° 0 mm 1 mps 741 mmHg 56%
    13:00 +31°C° 0.2 mm 1 mps 741 mmHg 56%
    14:00 +31°C° 0.2 mm 2 mps 741 mmHg 56%
    15:00 +31°C° 0.2 mm 2 mps 741 mmHg 56%
    16:00 +30°C° 0.3 mm 1 mps 741 mmHg 60%
    17:00 +30°C° 0.3 mm 1 mps 742 mmHg 63%
    18:00 +30°C° 0.3 mm 1 mps 742 mmHg 67%
    19:00 +28°C° 0.2 mm 1 mps 742 mmHg 72%
    20:00 +26°C° 0.2 mm 1 mps 742 mmHg 77%
    21:00 +23°C° 0.2 mm 1 mps 742 mmHg 82%
    22:00 +23°C° 0.1 mm 1 mps 742 mmHg 84%
    23:00 +22°C° 0.1 mm 1 mps 743 mmHg 87%

    27 June, Wednesday

    Time Temperature Precipitation Wind Pressure Humidity
    00:00 +21°C° 0.1 mm 1 mps 743 mmHg 89%
    01:00 +21°C° 0 mm 1 mps 742 mmHg 90%
    02:00 +20°C° 0 mm 1 mps 742 mmHg 90%
    03:00 +20°C° 0 mm 1 mps 742 mmHg 91%
    04:00 +21°C° 0.2 mm 1 mps 742 mmHg 91%
    05:00 +21°C° 0.2 mm 1 mps 742 mmHg 91%
    06:00 +22°C° 0.2 mm 1 mps 742 mmHg 90%
    07:00 +23°C° 0.2 mm 1 mps 742 mmHg 87%
    08:00 +25°C° 0.2 mm 1 mps 741 mmHg 83%
    09:00 +26°C° 0.2 mm 1 mps 741 mmHg 79%
    10:00 +27°C° 1 mm 1 mps 741 mmHg 76%
    11:00 +28°C° 1 mm 1 mps 741 mmHg 74%
    12:00 +29°C° 1 mm 2 mps 740 mmHg 71%
    13:00 +29°C° 1.5 mm 2 mps 740 mmHg 72%
    14:00 +29°C° 1.5 mm 2 mps 740 mmHg 72%
    15:00 +29°C° 1.5 mm 2 mps 740 mmHg 72%
    16:00 +28°C° 1 mm 1 mps 740 mmHg 76%
    17:00 +27°C° 1 mm 1 mps 740 mmHg 81%
    18:00 +25°C° 1 mm 0 mps 741 mmHg 85%
    19:00 +23°C° 0.4 mm 0 mps 740 mmHg 87%
    20:00 +24°C° 0.4 mm 1 mps 740 mmHg 88%
    21:00 +23°C° 0.4 mm 1 mps 740 mmHg 90%
    22:00 +22°C° 0.2 mm 1 mps 740 mmHg 90%
    23:00 +22°C° 0.2 mm 1 mps 740 mmHg 91%

    28 June, Thursday

    Time Temperature Precipitation Wind Pressure Humidity
    00:00 +22°C° 0.2 mm 1 mps 740 mmHg 91%
    01:00 +20°C° 0.2 mm 2 mps 740 mmHg 91%
    02:00 +20°C° 0.2 mm 2 mps 740 mmHg 92%
    03:00 +19°C° 0.2 mm 2 mps 740 mmHg 92%
    04:00 +19°C° 0 mm 2 mps 740 mmHg 91%
    05:00 +20°C° 0 mm 2 mps 740 mmHg 90%
    06:00 +20°C° 0 mm 2 mps 740 mmHg 89%
    07:00 +23°C° 0 mm 1 mps 740 mmHg 81%
    08:00 +25°C° 0 mm 1 mps 740 mmHg 73%
    09:00 +27°C° 0 mm 1 mps 740 mmHg 65%
    10:00 +28°C° 0 mm 1 mps 739 mmHg 61%
    11:00 +30°C° 0 mm 1 mps 739 mmHg 57%
    12:00 +31°C° 0 mm 1 mps 739 mmHg 53%
    13:00 +31°C° 0 mm 1 mps 739 mmHg 53%
    14:00 +32°C° 0 mm 2 mps 738 mmHg 52%
    15:00 +32°C° 0 mm 2 mps 738 mmHg 52%
    16:00 +31°C° 0 mm 2 mps 738 mmHg 57%
    17:00 +30°C° 0 mm 2 mps 738 mmHg 62%
    18:00 +30°C° 0 mm 3 mps 737 mmHg 68%
    19:00 +28°C° 0.1 mm 2 mps 737 mmHg 72%
    20:00 +26°C° 0.1 mm 2 mps 737 mmHg 76%
    21:00 +24°C° 0.1 mm 1 mps 737 mmHg 80%
    22:00 +23°C° 0.2 mm 1 mps 737 mmHg 81%
    23:00 +23°C° 0.2 mm 2 mps 737 mmHg 81%

    29 June, Friday

    Time Temperature Precipitation Wind Pressure Humidity
    00:00 +21°C° 0.2 mm 2 mps 737 mmHg 82%
    01:00 +21°C° 0 mm 2 mps 737 mmHg 82%
    02:00 +20°C° 0 mm 2 mps 737 mmHg 83%
    03:00 +20°C° 0 mm 2 mps 736 mmHg 83%
    04:00 +20°C° 0.1 mm 2 mps 736 mmHg 84%
    05:00 +21°C° 0.1 mm 1 mps 736 mmHg 84%
    06:00 +22°C° 0.1 mm 1 mps 736 mmHg 85%
    07:00 +22°C° 0.2 mm 1 mps 736 mmHg 84%
    08:00 +23°C° 0.2 mm 1 mps 736 mmHg 83%
    09:00 +24°C° 0.2 mm 1 mps 736 mmHg 82%
    10:00 +26°C° 0.1 mm 1 mps 735 mmHg 73%
    11:00 +28°C° 0.1 mm 2 mps 735 mmHg 63%
    12:00 +30°C° 0.1 mm 2 mps 735 mmHg 53%
    13:00 +30°C° 0.4 mm 2 mps 735 mmHg 55%
    14:00 +30°C° 0.4 mm 2 mps 735 mmHg 56%
    15:00 +30°C° 0.4 mm 3 mps 735 mmHg 57%
    16:00 +29°C° 0.2 mm 3 mps 735 mmHg 59%
    17:00 +29°C° 0.2 mm 3 mps 735 mmHg 61%
    18:00 +29°C° 0.2 mm 3 mps 735 mmHg 63%
    19:00 +27°C° 0.3 mm 2 mps 735 mmHg 68%
    20:00 +24°C° 0.3 mm 2 mps 735 mmHg 73%
    21:00 +22°C° 0.3 mm 1 mps 735 mmHg 78%
    22:00 +21°C° 0.2 mm 2 mps 735 mmHg 80%
    23:00 +20°C° 0.2 mm 2 mps 735 mmHg 82%
    Show more